{"data":{"norad_id":48149,"epoch":"2026-05-25T01:28:57.237312Z","epoch_age_seconds":59828,"freshness":"FRESH","line1":"1 48149U 21027BK  26145.06177358  .00001771  00000+0  71929-4 0  9990","line2":"2 48149  53.1580 157.7088 0001443  94.3920 265.7246 15.30193875284373","mean_motion":15.30193875,"eccentricity":0.0001443,"inclination_deg":53.158,"raan_deg":157.7088,"arg_perigee_deg":94.392,"mean_anomaly_deg":265.7246,"bstar":7.1929e-5,"rev_number":28437,"period_min":94.105722387629,"perigee_km":474.24441628368,"apogee_km":476.22229896889,"semimajor_km":6853.3703576263,"source":"CELESTRAK","updated_at":"2026-05-25T13:38:16.651865Z"}}